Flag for Israel Weather past 2 weeks in Jerusalem, Israel

Now
82 °F

Passing clouds.


Feels Like: 87 °F
Forecast: 70 / 84 °F
Wind: 8 mph from South

Location: Ben Gurion International Airport

Current Time: Sep 1, 2015 at 9:25:08 AM

Latest Report: Sep 1, 2015 at 8:50 AM


Visibility: N/A

Pressure: 29.86 "Hg (27.36 "Hg at 769m altitude)

Humidity: 70%

Dew point: 72 °F

Location of JerusalemLocation

Historic Weather in Jerusalem — Graph

°F

Jerusalem temperature yesterday

Maximum temperature yesterday: 90 °F (at 12:20 PM)
Minimum temperature yesterday: 75 °F (at 4:20 AM)
Average temperature yesterday: 83 °F

Past Weeks' High & Low Weather Summary

 TemperatureHumidityPressure
High95 °F (Aug 17, 10:50 AM)84% (Aug 18, 12:50 AM)29.89 "Hg (Aug 18, 12:50 AM)
Low75 °F (Aug 26, 4:20 AM)41% (Aug 17, 3:50 PM)29.71 "Hg (Aug 17, 4:50 PM)
Average84 °F65%29.81 "Hg
* Reported Aug 17 8:20 AM — Sep 1 8:20 AM, Jerusalem, Weather by CustomWeather, © 2015

Note: Actual official high and low records may vary slightly from our data, if they occured in-between our weather recording intervals... More about our weather records

Advertising

Jerusalem weather history for previous 24 hours

 ConditionsComfort  
Time TempWeatherWind HumidityBarometerVisibility
8:20 AM
Tue, Sep 1
81 °FSunny.8 mph74%29.86 "Hg10 mi
7:50 AM81 °FSunny.6 mph74%29.86 "Hg10 mi
6:20 AM77 °FPassing clouds.7 mph79%29.86 "HgN/A
5:50 AM77 °FPassing clouds.6 mph79%29.83 "HgN/A
5:20 AM77 °FPassing clouds.6 mph79%29.83 "HgN/A
4:50 AM77 °FPassing clouds.6 mph79%29.83 "HgN/A
4:20 AM77 °FPassing clouds.6 mph79%29.83 "HgN/A
3:50 AM77 °FPassing clouds.6 mph79%29.83 "HgN/A
3:20 AM77 °FPassing clouds.5 mph83%29.86 "HgN/A
2:50 AM79 °FPassing clouds.6 mph79%29.86 "HgN/A
2:20 AM79 °FPassing clouds.6 mph79%29.86 "HgN/A
1:50 AM79 °FPassing clouds.5 mph74%29.86 "HgN/A
1:20 AM81 °FPassing clouds.2 mph74%29.86 "HgN/A
12:50 AM81 °FPassing clouds.3 mph74%29.86 "HgN/A
12:20 AM81 °FPassing clouds.3 mph74%29.86 "HgN/A
11:50 PM
Mon, Aug 31
81 °FPassing clouds.3 mph74%29.86 "HgN/A
11:20 PM81 °FPassing clouds.2 mph70%29.86 "HgN/A
10:50 PM81 °FPassing clouds.2 mph70%29.86 "HgN/A
10:20 PM82 °FPassing clouds.3 mph66%29.86 "HgN/A
9:50 PM82 °FPassing clouds.5 mph70%29.86 "HgN/A
9:20 PM82 °FPassing clouds.5 mph70%29.86 "HgN/A
8:50 PM82 °FPassing clouds.6 mph70%29.86 "HgN/A
8:20 PM84 °FPassing clouds.8 mph66%29.86 "HgN/A
7:50 PM84 °FPassing clouds.8 mph66%29.83 "HgN/A
7:20 PM84 °FPassing clouds.10 mph66%29.83 "HgN/A
6:50 PM84 °FPassing clouds.12 mph66%29.83 "HgN/A
6:20 PM86 °FPassing clouds.12 mph62%29.83 "HgN/A
5:50 PM86 °FPassing clouds.13 mph62%29.83 "HgN/A
5:20 PM88 °FPassing clouds.13 mph59%29.83 "HgN/A
4:50 PM88 °FPassing clouds.13 mph59%29.83 "HgN/A
4:20 PM90 °FPassing clouds.13 mph55%29.83 "HgN/A
3:50 PM88 °FPassing clouds.14 mph55%29.83 "HgN/A
3:20 PM88 °FPassing clouds.14 mph55%29.83 "HgN/A
2:50 PM90 °FPassing clouds.14 mph52%29.86 "HgN/A
2:20 PM90 °FPassing clouds.13 mph49%29.86 "HgN/A
1:50 PM90 °FPassing clouds.13 mph52%29.86 "HgN/A
1:20 PM88 °FPassing clouds.13 mph52%29.86 "HgN/A
12:50 PM90 °FPassing clouds.12 mph49%29.86 "HgN/A
12:20 PM90 °FScattered clouds.9 mph49%29.86 "HgN/A
11:50 AM88 °FScattered clouds.9 mph55%29.86 "HgN/A
11:20 AM88 °FScattered clouds.8 mph52%29.86 "HgN/A
10:50 AM88 °FScattered clouds.7 mph52%29.86 "HgN/A
10:20 AM86 °FScattered clouds.3 mph55%29.86 "HgN/A
9:50 AM84 °FScattered clouds.6 mph62%29.86 "HgN/A
9:20 AM84 °FScattered clouds.6 mph62%29.86 "HgN/A
Weather by CustomWeather, © 2015

See weather overviewHow to use our weather pages